Regional Weather Roundup
Issued by NWS Sioux Falls, SD

Home | Current Version | Previous Version | Text Only | Print | Product List | Glossary Off
Versions: 1 2 3 4 5 6 7 8 9 10 11 12 13 14 15 16 17 18 19 20 21 22 23 24 25 26 27 28 29 30 31 32 33 34 35 36 37 38 39 40 41 42 43 44 45 46 47 48 49 50

000
ASUS43 KFSD 270602
RWRFSD

WEATHER ROUNDUP FOR SE SOUTH DAKOTA/SW MINNESOTA/NW IOWA
NATIONAL WEATHER SERVICE SIOUX FALLS SD
100 AM CDT WED AUG 27 2014

NOTE: "FAIR" INDICATES FEW OR NO CLOUDS BELOW 12,000 FEET WITH NO
SIGNIFICANT WEATHER AND OR OBSTRUCTIONS TO VISIBILITY.


SDZ038>040-050-052>070-270700-
SOUTHEAST SOUTH DAKOTA

CITY           SKY/WX    TMP DP  RH WIND       PRES   REMARKS
CHAMBERLAIN    MOCLDY    62  57  85 SE8       30.14S
6HR MIN TEMP:  60; 6HR MAX TEMP:  71;

HURON          MOCLDY    62  58  86 SE5       30.15F
6HR MIN TEMP:  59; 6HR MAX TEMP:  69;

MADISON        FAIR      57  57 100 SE3       30.19S
MITCHELL       MOCLDY    60  58  92 E3        30.16F
6HR MIN TEMP:  60; 6HR MAX TEMP:  72;

SIOUX FALLS    MOCLDY    61  58  90 CALM      30.18S
6HR MIN TEMP:  61; 6HR MAX TEMP:  70;

WINNER         FAIR      64  60  87 E9        30.12F
YANKTON        FAIR      61  57  88 E6        30.16S
$$

MNZ071-072-080-081-089-090-097-098-270700-
SOUTHWEST MINNESOTA

CITY           SKY/WX    TMP DP  RH WIND       PRES   REMARKS
FAIRMONT       FAIR      55  52  88 N5        30.18F
JACKSON        FAIR      57  54  88 NE3       30.19F
LUVERNE        MOCLDY    61  55  82 CALM      30.19R
MARSHALL       CLOUDY    61  57  88 N3        30.19S
6HR MIN TEMP:  61; 6HR MAX TEMP:  68;

MONTEVIDEO     CLOUDY    61  57  88 CALM      30.21R
PIPESTONE      FAIR      61  55  82 CALM      30.19S
REDWOOD FALLS  CLOUDY    63  58  83 E3        30.18F
TRACY          CLOUDY    63  59  88 CALM      30.19F
WINDOM         CLOUDY    61  57  88 CALM      30.19F
WORTHINGTON    FAIR      57  55  94 CALM      30.20S
$$

IAZ001>003-012>014-020>022-031-032-NEZ013-014-SDZ071-270700-
NORTHWEST IOWA

CITY           SKY/WX    TMP DP  RH WIND       PRES   REMARKS
CHEROKEE       FAIR      59  59 100 CALM      30.16F
DENISON        MOCLDY    64  64 100 CALM      30.14S
ESTHERVILLE    FAIR      58  55  90 N5        30.18S
LE MARS        FAIR      61  59  94 N6        30.16F
ORANGE CITY    FAIR      64  57  77 E5        30.17F
SHELDON        FAIR      57  57 100 CALM      30.17S
SIOUX CITY     MOCLDY    64  61  90 SE3       30.15F
6HR MIN TEMP:  64; 6HR MAX TEMP:  72;

SPENCER        FAIR      57  55  93 CALM      30.18S
6HR MIN TEMP:  57; 6HR MAX TEMP:  70;

STORM LAKE     FAIR      61  61 100 E6        30.17S
$$

ABBREVIATIONS USED IN REMARKS
   TC - TEMPERATURE IN CELSIUS
  WCI - WIND CHILL INDEX
   HX - HEAT INDEX
  VSB - VISIBILITY



USA.gov is the U.S. government's official web portal to all federal, state and local government web resources and services.